Time,TemperatureF,DewpointF,PressureIn,WindDirection,WindDirectionDegrees,WindSpeedMPH,WindSpeedGustMPH,Humidity,HourlyPrecipIn,Conditions,Clouds,dailyrainin,SoftwareType,DateUTC
2013-01-08 00:01:00,45.0,36.0,30.04,NNE,18,4.0,4.0,70,0.00,,,0.00,,2013-01-08 08:01:00,
2013-01-08 01:52:00,47.0,30.0,30.04,North,355,3.0,3.0,52,0.00,,,0.00,,2013-01-08 09:52:00,
2013-01-08 02:02:00,47.0,30.0,30.04,North,355,3.0,3.0,52,0.00,,,0.00,,2013-01-08 10:02:00,
2013-01-08 02:12:00,47.0,30.0,30.04,North,355,3.0,3.0,52,0.00,,,0.00,,2013-01-08 10:12:00,
2013-01-08 02:22:00,49.0,30.0,30.04,North,10,5.0,5.0,48,0.00,,,0.00,,2013-01-08 10:22:00,
2013-01-08 02:32:00,49.0,30.0,30.04,North,10,5.0,5.0,48,0.00,,,0.00,,2013-01-08 10:32:00,
2013-01-08 02:42:00,49.0,30.0,30.04,North,10,5.0,5.0,48,0.00,,,0.00,,2013-01-08 10:42:00,
2013-01-08 02:52:00,49.0,30.0,30.04,North,10,5.0,5.0,48,0.00,,,0.00,,2013-01-08 10:52:00,
2013-01-08 03:02:00,49.0,30.0,30.04,North,10,5.0,5.0,48,0.00,,,0.00,,2013-01-08 11:02:00,
2013-01-08 03:53:00,47.0,29.0,30.03,NNE,24,7.0,7.0,49,0.00,,,0.00,,2013-01-08 11:53:00,
2013-01-08 04:02:00,47.0,29.0,30.03,NNE,24,7.0,7.0,49,0.00,,,0.00,,2013-01-08 12:02:00,
2013-01-08 04:12:00,47.0,29.0,30.03,NNE,24,7.0,7.0,49,0.00,,,0.00,,2013-01-08 12:12:00,
2013-01-08 04:22:00,47.0,29.0,30.03,NNE,24,7.0,7.0,49,0.00,,,0.00,,2013-01-08 12:22:00,
2013-01-08 04:32:00,47.0,29.0,30.03,NNE,24,7.0,7.0,49,0.00,,,0.00,,2013-01-08 12:32:00,
2013-01-08 04:53:00,47.0,28.0,30.03,NNW,348,2.0,2.0,48,0.00,,,0.00,,2013-01-08 12:53:00,
2013-01-08 05:03:00,47.0,28.0,30.03,NNW,348,2.0,2.0,48,0.00,,,0.00,,2013-01-08 13:03:00,
2013-01-08 05:12:00,47.0,28.0,30.03,NNW,348,2.0,2.0,48,0.00,,,0.00,,2013-01-08 13:12:00,
2013-01-08 05:22:00,47.0,28.0,30.03,NNW,348,2.0,2.0,48,0.00,,,0.00,,2013-01-08 13:22:00,
2013-01-08 05:32:00,47.0,28.0,30.03,NNW,348,2.0,2.0,48,0.00,,,0.00,,2013-01-08 13:32:00,
2013-01-08 06:23:00,48.0,29.0,30.04,NNE,19,7.0,7.0,47,0.00,,,0.00,,2013-01-08 14:23:00,
2013-01-08 06:33:00,48.0,29.0,30.04,NNE,19,7.0,7.0,47,0.00,,,0.00,,2013-01-08 14:33:00,
2013-01-08 06:43:00,48.0,29.0,30.04,NNE,19,7.0,7.0,47,0.00,,,0.00,,2013-01-08 14:43:00,
2013-01-08 06:53:00,48.0,29.0,30.04,NNE,19,7.0,7.0,47,0.00,,,0.00,,2013-01-08 14:53:00,
2013-01-08 07:02:00,48.0,29.0,30.04,NNE,19,7.0,7.0,47,0.00,,,0.00,,2013-01-08 15:02:00,
2013-01-08 07:53:00,47.0,31.0,30.06,NNW,347,5.0,5.0,53,0.00,,,0.00,,2013-01-08 15:53:00,
2013-01-08 08:03:00,47.0,31.0,30.06,NNW,347,5.0,5.0,53,0.00,,,0.00,,2013-01-08 16:03:00,
2013-01-08 08:12:00,47.0,31.0,30.06,NNW,347,5.0,5.0,53,0.00,,,0.00,,2013-01-08 16:12:00,
2013-01-08 08:22:00,47.0,31.0,30.06,NNW,347,5.0,5.0,53,0.00,,,0.00,,2013-01-08 16:22:00,
2013-01-08 08:32:00,47.0,31.0,30.06,NNW,347,5.0,5.0,53,0.00,,,0.00,,2013-01-08 16:32:00,
2013-01-08 08:33:00,54.0,32.0,30.08,North,360,5.0,5.0,43,0.00,,,0.00,,2013-01-08 16:33:00,
2013-01-08 08:53:00,54.0,32.0,30.08,North,360,5.0,5.0,43,0.00,,,0.00,,2013-01-08 16:53:00,
2013-01-08 09:02:00,54.0,32.0,30.08,North,360,5.0,5.0,43,0.00,,,0.00,,2013-01-08 17:02:00,
2013-01-08 09:12:00,54.0,32.0,30.08,North,360,5.0,5.0,43,0.00,,,0.00,,2013-01-08 17:12:00,
2013-01-08 09:22:00,54.0,32.0,30.08,North,360,5.0,5.0,43,0.00,,,0.00,,2013-01-08 17:22:00,
2013-01-08 10:23:00,64.0,36.0,30.09,North,355,1.0,1.0,35,0.00,,,0.00,,2013-01-08 18:23:00,
2013-01-08 10:33:00,64.0,36.0,30.09,North,355,1.0,1.0,35,0.00,,,0.00,,2013-01-08 18:33:00,
2013-01-08 10:43:00,64.0,36.0,30.09,North,355,1.0,1.0,35,0.00,,,0.00,,2013-01-08 18:43:00,
2013-01-08 10:53:00,64.0,36.0,30.09,North,355,1.0,1.0,35,0.00,,,0.00,,2013-01-08 18:53:00,
2013-01-08 11:02:00,64.0,36.0,30.09,North,355,1.0,1.0,35,0.00,,,0.00,,2013-01-08 19:02:00,
2013-01-08 11:53:00,65.0,47.0,30.08,SSW,192,2.0,2.0,53,0.00,,,0.00,,2013-01-08 19:53:00,
2013-01-08 12:02:00,65.0,47.0,30.08,SSW,192,2.0,2.0,53,0.00,,,0.00,,2013-01-08 20:02:00,
2013-01-08 12:12:00,65.0,47.0,30.08,SSW,192,2.0,2.0,53,0.00,,,0.00,,2013-01-08 20:12:00,
2013-01-08 12:22:00,65.0,47.0,30.08,SSW,192,2.0,2.0,53,0.00,,,0.00,,2013-01-08 20:22:00,
2013-01-08 12:32:00,65.0,47.0,30.08,SSW,192,2.0,2.0,53,0.00,,,0.00,,2013-01-08 20:32:00,
2013-01-08 12:53:00,66.0,45.0,30.05,SSW,207,7.0,-999.0,46,-99.99,,,-99.99,,2013-01-08 20:53:00,
2013-01-08 13:02:00,66.0,45.0,30.05,SSW,207,7.0,-999.0,46,-99.99,,,-99.99,,2013-01-08 21:02:00,
2013-01-08 13:12:00,66.0,45.0,30.05,SSW,207,7.0,-999.0,46,-99.99,,,-99.99,,2013-01-08 21:12:00,
2013-01-08 13:22:00,68.0,43.0,30.05,SW,229,4.0,-999.0,40,-99.99,,,-99.99,,2013-01-08 21:22:00,
2013-01-08 13:43:00,68.0,43.0,30.05,SW,229,4.0,-999.0,40,-99.99,,,-99.99,,2013-01-08 21:43:00,
2013-01-08 13:53:00,68.0,43.0,30.05,SW,229,4.0,-999.0,40,-99.99,,,-99.99,,2013-01-08 21:53:00,
2013-01-08 14:23:00,66.0,49.0,30.04,WSW,254,4.0,-999.0,55,-99.99,,,-99.99,,2013-01-08 22:23:00,
2013-01-08 14:33:00,66.0,49.0,30.04,WSW,254,4.0,-999.0,55,-99.99,,,-99.99,,2013-01-08 22:33:00,
2013-01-08 14:43:00,66.0,49.0,30.04,WSW,254,4.0,-999.0,55,-99.99,,,-99.99,,2013-01-08 22:43:00,
2013-01-08 14:53:00,67.0,44.0,30.04,West,273,2.0,-999.0,44,-99.99,,,-99.99,,2013-01-08 22:53:00,
2013-01-08 15:02:00,67.0,44.0,30.04,West,273,2.0,-999.0,44,-99.99,,,-99.99,,2013-01-08 23:02:00,
2013-01-08 15:12:00,67.0,44.0,30.04,West,273,2.0,-999.0,44,-99.99,,,-99.99,,2013-01-08 23:12:00,
2013-01-08 15:22:00,66.0,45.0,30.05,SW,233,3.0,-999.0,47,-99.99,,,-99.99,,2013-01-08 23:22:00,
2013-01-08 15:32:00,66.0,45.0,30.05,SW,233,3.0,-999.0,47,-99.99,,,-99.99,,2013-01-08 23:32:00,
2013-01-08 15:43:00,66.0,45.0,30.05,SW,233,3.0,-999.0,47,-99.99,,,-99.99,,2013-01-08 23:43:00,
2013-01-08 15:52:00,66.0,45.0,30.05,SW,233,3.0,-999.0,47,-99.99,,,-99.99,,2013-01-08 23:52:00,
2013-01-08 16:02:00,66.0,45.0,30.05,SW,233,3.0,-999.0,47,-99.99,,,-99.99,,2013-01-09 00:02:00,
2013-01-08 16:22:00,65.0,39.0,30.06,WSW,245,2.0,-999.0,39,-99.99,,,-99.99,,2013-01-09 00:22:00,
2013-01-08 16:52:00,64.0,36.0,30.06,WSW,246,1.0,-999.0,35,-99.99,,,-99.99,,2013-01-09 00:52:00,
2013-01-08 17:22:00,60.0,45.0,30.06,WSW,246,2.0,-999.0,58,-99.99,,,-99.99,,2013-01-09 01:22:00,
2013-01-08 17:32:00,60.0,45.0,30.06,WSW,246,2.0,-999.0,58,-99.99,,,-99.99,,2013-01-09 01:32:00,
2013-01-08 17:42:00,60.0,45.0,30.06,WSW,246,2.0,-999.0,58,-99.99,,,-99.99,,2013-01-09 01:42:00,
2013-01-08 17:52:00,60.0,45.0,30.06,WSW,246,2.0,-999.0,58,-99.99,,,-99.99,,2013-01-09 01:52:00,
2013-01-08 18:02:00,60.0,45.0,30.06,WSW,246,2.0,-999.0,58,-99.99,,,-99.99,,2013-01-09 02:02:00,
2013-01-08 21:22:00,50.0,44.0,30.08,NNW,331,1.0,-999.0,80,-99.99,,,-99.99,,2013-01-09 05:22:00,
2013-01-08 21:33:00,50.0,44.0,30.08,NNW,331,1.0,-999.0,80,-99.99,,,-99.99,,2013-01-09 05:33:00,
2013-01-08 21:43:00,50.0,44.0,30.08,NNW,331,1.0,-999.0,80,-99.99,,,-99.99,,2013-01-09 05:43:00,
2013-01-08 21:52:00,50.0,44.0,30.08,NNW,331,1.0,-999.0,80,-99.99,,,-99.99,,2013-01-09 05:52:00,
2013-01-08 22:02:00,50.0,44.0,30.08,NNW,331,1.0,-999.0,80,-99.99,,,-99.99,,2013-01-09 06:02:00,
2013-01-08 22:22:00,49.0,44.0,30.10,NNW,331,0.0,-999.0,82,-99.99,,,-99.99,,2013-01-09 06:22:00,
2013-01-08 22:32:00,49.0,44.0,30.10,NNW,331,0.0,-999.0,82,-99.99,,,-99.99,,2013-01-09 06:32:00,
2013-01-08 22:42:00,49.0,44.0,30.10,NNW,331,0.0,-999.0,82,-99.99,,,-99.99,,2013-01-09 06:42:00,
2013-01-08 22:52:00,49.0,44.0,30.10,NNW,331,0.0,-999.0,82,-99.99,,,-99.99,,2013-01-09 06:52:00,
2013-01-08 23:02:00,49.0,44.0,30.10,NNW,331,0.0,-999.0,82,-99.99,,,-99.99,,2013-01-09 07:02:00,
2013-01-08 23:22:00,48.0,42.0,30.11,NNW,331,2.0,-999.0,81,-99.99,,,-99.99,,2013-01-09 07:22:00,
2013-01-08 23:32:00,48.0,42.0,30.11,NNW,331,2.0,-999.0,81,-99.99,,,-99.99,,2013-01-09 07:32:00,
2013-01-08 23:42:00,48.0,42.0,30.11,NNW,331,2.0,-999.0,81,-99.99,,,-99.99,,2013-01-09 07:42:00,
2013-01-08 23:52:00,48.0,42.0,30.11,NNW,333,2.0,-999.0,79,-99.99,,,-99.99,,2013-01-09 07:52:00,